Time,TemperatureF,DewpointF,PressureIn,WindDirection,WindDirectionDegrees,WindSpeedMPH,WindSpeedGustMPH,Humidity,HourlyPrecipIn,Conditions,Clouds,dailyrainin,SoftwareType,DateUTC
2013-02-11 00:00:00,36.3,31.0,30.31,West,278,1.6,6.0,81,0.00,,,0.00,WX3IN1Plus v1.30,2013-02-11 05:00:00,
2013-02-11 00:05:00,36.4,31.1,30.30,South,180,1.4,5.5,81,0.00,,,0.00,WX3IN1Plus v1.30,2013-02-11 05:05:00,
2013-02-11 00:10:00,36.4,31.3,30.30,South,185,4.3,7.2,82,0.00,,,0.00,WX3IN1Plus v1.30,2013-02-11 05:10:00,
2013-02-11 00:15:00,36.4,31.3,30.29,South,184,3.9,6.3,82,0.00,,,0.00,WX3IN1Plus v1.30,2013-02-11 05:15:00,
2013-02-11 00:20:00,36.4,31.3,30.29,SE,142,0.0,5.0,82,0.00,,,0.00,WX3IN1Plus v1.30,2013-02-11 05:20:00,
2013-02-11 00:25:00,36.5,31.3,30.29,West,270,4.2,5.6,82,0.00,,,0.00,WX3IN1Plus v1.30,2013-02-11 05:25:00,
2013-02-11 00:30:00,36.6,31.7,30.29,SSW,196,0.0,5.0,83,0.00,,,0.00,WX3IN1Plus v1.30,2013-02-11 05:30:00,
2013-02-11 00:35:00,36.7,31.9,30.30,SSW,205,2.1,3.6,83,0.00,,,0.00,WX3IN1Plus v1.30,2013-02-11 05:35:00,
2013-02-11 00:40:00,36.6,31.7,30.30,SW,234,2.6,5.4,83,0.00,,,0.00,WX3IN1Plus v1.30,2013-02-11 05:40:00,
2013-02-11 00:45:00,36.8,31.9,30.30,West,262,2.0,5.1,83,0.00,,,0.00,WX3IN1Plus v1.30,2013-02-11 05:45:00,
2013-02-11 00:50:00,36.7,31.9,30.30,ESE,113,0.0,5.9,83,0.00,,,0.00,WX3IN1Plus v1.30,2013-02-11 05:50:00,
2013-02-11 00:55:00,36.8,31.9,30.30,SE,135,1.3,3.3,83,0.00,,,0.00,WX3IN1Plus v1.30,2013-02-11 05:55:00,
2013-02-11 01:00:00,36.9,32.0,30.30,WSW,243,0.0,2.7,83,0.00,,,0.00,WX3IN1Plus v1.30,2013-02-11 06:00:00,
2013-02-11 01:05:00,36.9,32.0,30.30,WSW,244,0.0,2.6,83,0.00,,,0.00,WX3IN1Plus v1.30,2013-02-11 06:05:00,
2013-02-11 01:10:00,37.0,32.0,30.30,SSE,156,0.0,2.4,83,0.00,,,0.00,WX3IN1Plus v1.30,2013-02-11 06:10:00,
2013-02-11 01:15:00,37.0,32.3,30.30,SSE,156,0.0,0.0,84,0.00,,,0.00,WX3IN1Plus v1.30,2013-02-11 06:15:00,
2013-02-11 01:20:00,37.0,32.3,30.29,SSE,156,0.0,0.0,84,0.00,,,0.00,WX3IN1Plus v1.30,2013-02-11 06:20:00,
2013-02-11 01:25:00,37.1,32.9,30.28,SSE,156,0.0,0.0,85,0.00,,,0.00,WX3IN1Plus v1.30,2013-02-11 06:25:00,
2013-02-11 01:30:00,36.9,32.7,30.28,SSE,156,0.0,0.0,85,0.00,,,0.00,WX3IN1Plus v1.30,2013-02-11 06:30:00,
2013-02-11 01:35:00,36.8,32.7,30.28,SSE,156,0.0,0.0,86,0.00,,,0.00,WX3IN1Plus v1.30,2013-02-11 06:35:00,
2013-02-11 01:40:00,36.9,32.9,30.28,ESE,113,0.0,2.7,86,0.01,,,0.01,WX3IN1Plus v1.30,2013-02-11 06:40:00,
2013-02-11 01:45:00,36.8,32.7,30.28,ESE,113,0.0,0.0,86,0.01,,,0.01,WX3IN1Plus v1.30,2013-02-11 06:45:00,
2013-02-11 01:50:00,36.9,33.0,30.27,ESE,113,0.0,0.0,87,0.01,,,0.01,WX3IN1Plus v1.30,2013-02-11 06:50:00,
2013-02-11 01:55:00,36.9,33.0,30.28,ESE,113,0.0,0.0,87,0.01,,,0.01,WX3IN1Plus v1.30,2013-02-11 06:55:00,
2013-02-11 02:00:00,36.8,32.9,30.27,ESE,113,0.0,0.0,87,0.01,,,0.01,WX3IN1Plus v1.30,2013-02-11 07:00:00,
2013-02-11 02:05:00,36.6,32.9,30.27,ESE,113,0.0,0.0,88,0.01,,,0.01,WX3IN1Plus v1.30,2013-02-11 07:05:00,
2013-02-11 02:10:00,36.7,33.0,30.27,ESE,113,0.0,0.0,88,0.02,,,0.02,WX3IN1Plus v1.30,2013-02-11 07:10:00,
2013-02-11 02:15:00,36.8,33.0,30.26,ESE,113,0.0,0.0,88,0.02,,,0.02,WX3IN1Plus v1.30,2013-02-11 07:15:00,
2013-02-11 02:20:00,36.7,33.4,30.26,ESE,113,0.0,0.0,89,0.02,,,0.02,WX3IN1Plus v1.30,2013-02-11 07:20:00,
2013-02-11 02:25:00,36.8,33.4,30.26,ESE,113,0.0,0.0,89,0.02,,,0.02,WX3IN1Plus v1.30,2013-02-11 07:25:00,
2013-02-11 02:30:00,36.8,33.4,30.25,ESE,113,0.0,0.0,89,0.02,,,0.02,WX3IN1Plus v1.30,2013-02-11 07:30:00,
2013-02-11 02:35:00,36.7,33.4,30.25,ESE,113,0.0,0.0,89,0.02,,,0.02,WX3IN1Plus v1.30,2013-02-11 07:35:00,
2013-02-11 02:40:00,36.8,33.6,30.25,ESE,113,0.0,0.0,90,0.01,,,0.02,WX3IN1Plus v1.30,2013-02-11 07:40:00,
2013-02-11 02:45:00,36.8,33.6,30.25,ESE,120,0.0,1.5,90,0.02,,,0.03,WX3IN1Plus v1.30,2013-02-11 07:45:00,
2013-02-11 02:50:00,36.8,33.6,30.25,ESE,120,0.0,0.8,90,0.02,,,0.03,WX3IN1Plus v1.30,2013-02-11 07:50:00,
2013-02-11 02:55:00,36.8,34.1,30.25,ESE,120,0.0,0.0,91,0.02,,,0.03,WX3IN1Plus v1.30,2013-02-11 07:55:00,
2013-02-11 03:00:00,36.8,34.1,30.25,ESE,120,0.0,0.0,91,0.03,,,0.04,WX3IN1Plus v1.30,2013-02-11 08:00:00,
2013-02-11 03:05:00,36.8,34.1,30.25,ESE,120,0.0,0.0,91,0.03,,,0.04,WX3IN1Plus v1.30,2013-02-11 08:05:00,
2013-02-11 03:10:00,36.8,34.1,30.24,WSW,246,3.2,4.5,91,0.03,,,0.05,WX3IN1Plus v1.30,2013-02-11 08:10:00,
2013-02-11 03:15:00,36.8,34.3,30.22,SSW,206,0.0,3.9,92,0.04,,,0.06,WX3IN1Plus v1.30,2013-02-11 08:15:00,
2013-02-11 03:20:00,36.8,34.3,30.22,South,177,0.0,1.7,92,0.05,,,0.07,WX3IN1Plus v1.30,2013-02-11 08:20:00,
2013-02-11 03:25:00,36.8,34.3,30.22,SSW,198,0.0,1.6,92,0.05,,,0.07,WX3IN1Plus v1.30,2013-02-11 08:25:00,
2013-02-11 03:30:00,36.9,34.7,30.22,SW,216,0.0,4.2,92,0.06,,,0.08,WX3IN1Plus v1.30,2013-02-11 08:30:00,
2013-02-11 03:35:00,36.9,34.7,30.21,SE,129,1.3,2.5,92,0.07,,,0.09,WX3IN1Plus v1.30,2013-02-11 08:35:00,
2013-02-11 03:40:00,37.0,34.7,30.21,SE,129,1.4,3.1,92,0.08,,,0.10,WX3IN1Plus v1.30,2013-02-11 08:40:00,
2013-02-11 03:45:00,37.1,35.2,30.20,SE,144,0.0,1.8,93,0.08,,,0.11,WX3IN1Plus v1.30,2013-02-11 08:45:00,
2013-02-11 03:50:00,37.1,35.2,30.20,SSE,156,0.0,2.7,93,0.09,,,0.12,WX3IN1Plus v1.30,2013-02-11 08:50:00,
2013-02-11 03:55:00,37.1,35.2,30.20,SSE,156,0.0,0.0,93,0.10,,,0.13,WX3IN1Plus v1.30,2013-02-11 08:55:00,
2013-02-11 04:00:00,37.0,34.8,30.19,SSE,156,0.0,0.0,93,0.09,,,0.13,WX3IN1Plus v1.30,2013-02-11 09:00:00,
2013-02-11 04:05:00,37.0,34.8,30.19,SSE,156,0.0,0.0,93,0.08,,,0.13,WX3IN1Plus v1.30,2013-02-11 09:05:00,
2013-02-11 04:10:00,37.2,35.2,30.18,SSE,156,0.0,0.0,93,0.10,,,0.15,WX3IN1Plus v1.30,2013-02-11 09:10:00,
2013-02-11 04:15:00,37.3,35.2,30.19,SSE,156,0.0,0.0,93,0.10,,,0.16,WX3IN1Plus v1.30,2013-02-11 09:15:00,
2013-02-11 04:20:00,37.3,35.2,30.18,SSE,156,0.0,0.0,93,0.09,,,0.16,WX3IN1Plus v1.30,2013-02-11 09:20:00,
2013-02-11 04:25:00,37.3,35.2,30.18,SSE,156,0.0,0.0,93,0.09,,,0.17,WX3IN1Plus v1.30,2013-02-11 09:25:00,
2013-02-11 04:30:00,37.2,35.2,30.18,SSE,156,0.0,0.0,93,0.09,,,0.17,WX3IN1Plus v1.30,2013-02-11 09:30:00,
2013-02-11 04:35:00,37.3,35.2,30.17,SSE,156,0.0,0.0,93,0.10,,,0.19,WX3IN1Plus v1.30,2013-02-11 09:35:00,
2013-02-11 04:40:00,37.3,35.2,30.16,SSE,156,0.0,0.0,93,0.10,,,0.20,WX3IN1Plus v1.30,2013-02-11 09:40:00,
2013-02-11 04:45:00,37.4,35.4,30.16,SSE,156,0.0,0.0,93,0.10,,,0.21,WX3IN1Plus v1.30,2013-02-11 09:45:00,
2013-02-11 04:50:00,37.4,35.4,30.15,SSE,156,0.0,0.0,93,0.11,,,0.23,WX3IN1Plus v1.30,2013-02-11 09:50:00,
2013-02-11 04:55:00,37.4,35.4,30.14,SW,234,1.0,1.1,93,0.11,,,0.24,WX3IN1Plus v1.30,2013-02-11 09:55:00,
2013-02-11 05:00:00,37.6,35.9,30.14,SW,234,0.0,1.0,94,0.12,,,0.25,WX3IN1Plus v1.30,2013-02-11 10:00:00,
2013-02-11 05:05:00,37.7,35.9,30.14,SW,234,0.0,0.0,94,0.11,,,0.25,WX3IN1Plus v1.30,2013-02-11 10:05:00,
2013-02-11 05:10:00,37.7,35.9,30.13,SW,234,0.0,0.0,94,0.10,,,0.25,WX3IN1Plus v1.30,2013-02-11 10:10:00,
2013-02-11 05:15:00,37.8,35.9,30.13,SW,234,0.0,0.0,94,0.10,,,0.26,WX3IN1Plus v1.30,2013-02-11 10:15:00,
2013-02-11 05:20:00,37.8,35.9,30.13,SW,234,0.0,0.0,94,0.11,,,0.27,WX3IN1Plus v1.30,2013-02-11 10:20:00,
2013-02-11 05:25:00,38.0,36.1,30.13,SW,234,0.0,0.0,94,0.11,,,0.28,WX3IN1Plus v1.30,2013-02-11 10:25:00,
2013-02-11 05:30:00,38.0,36.1,30.14,SW,234,0.0,0.0,94,0.12,,,0.29,WX3IN1Plus v1.30,2013-02-11 10:30:00,
2013-02-11 05:35:00,38.0,36.1,30.13,SW,234,0.0,0.0,94,0.11,,,0.30,WX3IN1Plus v1.30,2013-02-11 10:35:00,
2013-02-11 05:40:00,38.1,36.1,30.13,SW,234,0.0,0.0,94,0.12,,,0.32,WX3IN1Plus v1.30,2013-02-11 10:40:00,
2013-02-11 05:45:00,38.1,36.1,30.12,SW,234,0.0,0.0,94,0.12,,,0.33,WX3IN1Plus v1.30,2013-02-11 10:45:00,
2013-02-11 05:50:00,38.1,36.1,30.12,SW,234,0.0,0.0,94,0.12,,,0.35,WX3IN1Plus v1.30,2013-02-11 10:50:00,
2013-02-11 05:55:00,38.1,36.1,30.12,SW,234,0.0,0.0,94,0.11,,,0.36,WX3IN1Plus v1.30,2013-02-11 10:55:00,
2013-02-11 06:00:00,38.1,36.1,30.12,SW,234,0.0,0.0,94,0.11,,,0.36,WX3IN1Plus v1.30,2013-02-11 11:00:00,
2013-02-11 06:05:00,38.0,36.1,30.12,SW,234,0.0,0.0,94,0.13,,,0.38,WX3IN1Plus v1.30,2013-02-11 11:05:00,
2013-02-11 06:11:00,37.9,35.9,30.12,SW,234,0.0,0.0,94,0.15,,,0.40,WX3IN1Plus v1.30,2013-02-11 11:11:00,
2013-02-11 06:16:00,38.0,36.1,30.12,SW,234,0.0,0.0,94,0.14,,,0.40,WX3IN1Plus v1.30,2013-02-11 11:16:00,
2013-02-11 06:21:00,38.2,36.5,30.12,SW,223,0.0,0.6,94,0.14,,,0.41,WX3IN1Plus v1.30,2013-02-11 11:21:00,
2013-02-11 06:26:00,38.0,36.1,30.11,WSW,254,0.0,1.1,94,0.14,,,0.42,WX3IN1Plus v1.30,2013-02-11 11:26:00,
2013-02-11 06:31:00,38.1,36.1,30.11,WSW,254,0.0,0.0,94,0.13,,,0.42,WX3IN1Plus v1.30,2013-02-11 11:31:00,
2013-02-11 06:36:00,38.1,36.1,30.11,WSW,254,0.0,0.0,94,0.11,,,0.42,WX3IN1Plus v1.30,2013-02-11 11:36:00,
2013-02-11 06:41:00,38.3,36.6,30.10,WSW,254,0.0,0.0,94,0.11,,,0.43,WX3IN1Plus v1.30,2013-02-11 11:41:00,
2013-02-11 06:46:00,38.2,36.5,30.10,WSW,254,0.0,0.0,94,0.09,,,0.43,WX3IN1Plus v1.30,2013-02-11 11:46:00,
2013-02-11 06:51:00,38.1,36.1,30.10,WSW,254,0.0,0.0,94,0.09,,,0.44,WX3IN1Plus v1.30,2013-02-11 11:51:00,
2013-02-11 06:56:00,38.1,36.1,30.10,WSW,254,0.0,0.0,94,0.08,,,0.44,WX3IN1Plus v1.30,2013-02-11 11:56:00,
2013-02-11 07:01:00,38.1,36.1,30.10,SW,236,0.0,0.2,94,0.07,,,0.44,WX3IN1Plus v1.30,2013-02-11 12:01:00,
2013-02-11 07:06:00,38.2,36.5,30.09,SW,236,0.0,0.0,94,0.06,,,0.44,WX3IN1Plus v1.30,2013-02-11 12:06:00,
2013-02-11 07:11:00,38.1,36.1,30.09,SW,236,0.0,0.0,94,0.04,,,0.44,WX3IN1Plus v1.30,2013-02-11 12:11:00,
2013-02-11 07:16:00,38.1,36.1,30.09,SW,236,0.0,0.0,94,0.04,,,0.44,WX3IN1Plus v1.30,2013-02-11 12:16:00,
2013-02-11 07:21:00,38.0,36.1,30.09,SW,236,0.0,0.0,94,0.03,,,0.44,WX3IN1Plus v1.30,2013-02-11 12:21:00,
2013-02-11 07:26:00,38.1,36.1,30.09,SW,236,0.0,0.0,94,0.02,,,0.44,WX3IN1Plus v1.30,2013-02-11 12:26:00,
2013-02-11 07:31:00,38.2,36.5,30.09,SW,236,0.0,0.0,94,0.02,,,0.44,WX3IN1Plus v1.30,2013-02-11 12:31:00,
2013-02-11 07:36:00,38.3,36.6,30.09,SW,236,0.0,0.0,94,0.02,,,0.44,WX3IN1Plus v1.30,2013-02-11 12:36:00,
2013-02-11 07:41:00,38.3,36.6,30.10,SW,236,0.0,0.0,94,0.01,,,0.44,WX3IN1Plus v1.30,2013-02-11 12:41:00,
2013-02-11 07:46:00,38.1,36.1,30.09,SW,216,0.0,0.6,94,0.01,,,0.44,WX3IN1Plus v1.30,2013-02-11 12:46:00,
2013-02-11 07:51:00,38.2,36.5,30.08,SW,216,0.0,0.0,94,0.00,,,0.44,WX3IN1Plus v1.30,2013-02-11 12:51:00,
2013-02-11 07:56:00,38.3,36.8,30.08,South,188,1.7,2.0,95,0.00,,,0.44,WX3IN1Plus v1.30,2013-02-11 12:56:00,
2013-02-11 08:01:00,38.2,36.6,30.08,WSW,239,0.6,3.4,95,0.00,,,0.44,WX3IN1Plus v1.30,2013-02-11 13:01:00,
2013-02-11 08:06:00,38.3,36.8,30.08,WSW,248,0.0,4.2,95,0.00,,,0.44,WX3IN1Plus v1.30,2013-02-11 13:06:00,
2013-02-11 08:11:00,38.3,36.8,30.08,West,264,0.0,3.6,95,0.00,,,0.44,WX3IN1Plus v1.30,2013-02-11 13:11:00,
2013-02-11 08:16:00,38.3,36.8,30.07,SW,227,2.4,5.1,95,0.00,,,0.44,WX3IN1Plus v1.30,2013-02-11 13:16:00,
2013-02-11 08:21:00,38.4,36.8,30.07,SW,223,0.0,4.5,95,0.00,,,0.44,WX3IN1Plus v1.30,2013-02-11 13:21:00,
2013-02-11 08:26:00,38.4,36.8,30.06,WSW,244,2.0,6.6,95,0.00,,,0.44,WX3IN1Plus v1.30,2013-02-11 13:26:00,
2013-02-11 08:31:00,38.5,36.8,30.07,WSW,246,4.2,6.8,95,0.00,,,0.44,WX3IN1Plus v1.30,2013-02-11 13:31:00,
2013-02-11 08:36:00,38.5,36.8,30.06,West,262,2.0,6.9,95,0.00,,,0.44,WX3IN1Plus v1.30,2013-02-11 13:36:00,
2013-02-11 08:41:00,38.6,36.8,30.06,SW,229,3.2,6.6,95,0.00,,,0.44,WX3IN1Plus v1.30,2013-02-11 13:41:00,
2013-02-11 08:46:00,38.7,37.2,30.05,SSW,209,4.5,5.4,95,0.00,,,0.44,WX3IN1Plus v1.30,2013-02-11 13:46:00,
2013-02-11 08:51:00,38.8,37.2,30.06,SSW,199,0.0,4.9,95,0.00,,,0.44,WX3IN1Plus v1.30,2013-02-11 13:51:00,
2013-02-11 08:56:00,38.9,37.4,30.06,WSW,246,1.3,6.4,95,0.00,,,0.44,WX3IN1Plus v1.30,2013-02-11 13:56:00,
2013-02-11 09:01:00,39.1,37.4,30.07,SSW,208,1.9,6.5,95,0.00,,,0.44,WX3IN1Plus v1.30,2013-02-11 14:01:00,
2013-02-11 09:06:00,39.2,37.7,30.07,West,260,2.7,5.2,95,0.00,,,0.44,WX3IN1Plus v1.30,2013-02-11 14:06:00,
2013-02-11 09:11:00,39.1,37.4,30.07,WSW,239,2.9,5.6,95,0.00,,,0.44,WX3IN1Plus v1.30,2013-02-11 14:11:00,
2013-02-11 09:16:00,39.4,37.9,30.06,WSW,257,4.3,5.8,95,0.00,,,0.44,WX3IN1Plus v1.30,2013-02-11 14:16:00,
2013-02-11 09:21:00,39.4,37.9,30.06,SW,225,5.9,8.5,95,0.00,,,0.44,WX3IN1Plus v1.30,2013-02-11 14:21:00,
2013-02-11 09:26:00,39.5,37.9,30.06,West,260,3.4,6.1,95,0.00,,,0.44,WX3IN1Plus v1.30,2013-02-11 14:26:00,
2013-02-11 09:31:00,39.6,37.9,30.06,WSW,237,3.2,8.7,95,0.00,,,0.44,WX3IN1Plus v1.30,2013-02-11 14:31:00,
2013-02-11 09:36:00,39.8,38.1,30.06,WSW,246,4.8,5.5,95,0.00,,,0.44,WX3IN1Plus v1.30,2013-02-11 14:36:00,
2013-02-11 09:41:00,39.9,38.1,30.05,SW,222,1.9,6.6,95,0.00,,,0.44,WX3IN1Plus v1.30,2013-02-11 14:41:00,
2013-02-11 09:46:00,40.3,38.6,30.05,WSW,241,3.4,6.7,95,0.00,,,0.44,WX3IN1Plus v1.30,2013-02-11 14:46:00,
2013-02-11 09:51:00,40.5,39.0,30.04,SW,222,6.2,9.4,95,0.00,,,0.44,WX3IN1Plus v1.30,2013-02-11 14:51:00,
2013-02-11 09:56:00,41.1,39.5,30.04,West,275,3.1,12.4,95,0.00,,,0.44,WX3IN1Plus v1.30,2013-02-11 14:56:00,
2013-02-11 10:01:00,41.3,39.7,30.04,SW,227,5.8,8.7,95,0.00,,,0.44,WX3IN1Plus v1.30,2013-02-11 15:01:00,
2013-02-11 10:06:00,41.9,40.4,30.04,WNW,284,3.7,9.1,95,0.00,,,0.44,WX3IN1Plus v1.30,2013-02-11 15:06:00,
2013-02-11 10:11:00,42.0,40.4,30.04,SSW,208,1.3,7.4,95,0.00,,,0.44,WX3IN1Plus v1.30,2013-02-11 15:11:00,
2013-02-11 10:16:00,42.3,40.8,30.03,West,281,7.2,10.8,95,0.00,,,0.44,WX3IN1Plus v1.30,2013-02-11 15:16:00,
2013-02-11 10:21:00,42.5,41.0,30.02,West,271,6.1,9.2,95,0.00,,,0.44,WX3IN1Plus v1.30,2013-02-11 15:21:00,
2013-02-11 10:26:00,42.6,41.0,30.02,West,262,5.0,8.8,95,0.00,,,0.44,WX3IN1Plus v1.30,2013-02-11 15:26:00,
2013-02-11 10:31:00,42.9,41.3,30.02,SW,216,0.8,9.4,95,0.00,,,0.44,WX3IN1Plus v1.30,2013-02-11 15:31:00,
2013-02-11 10:36:00,43.1,41.5,30.02,WSW,257,4.2,10.8,95,0.00,,,0.44,WX3IN1Plus v1.30,2013-02-11 15:36:00,
2013-02-11 10:41:00,43.3,41.5,30.02,WSW,251,5.9,11.6,95,0.00,,,0.44,WX3IN1Plus v1.30,2013-02-11 15:41:00,
2013-02-11 10:46:00,43.7,42.0,30.01,WSW,254,7.0,12.0,95,0.00,,,0.44,WX3IN1Plus v1.30,2013-02-11 15:46:00,
2013-02-11 10:51:00,44.0,42.2,30.02,SW,233,4.5,11.3,95,0.00,,,0.44,WX3IN1Plus v1.30,2013-02-11 15:51:00,
2013-02-11 10:56:00,43.9,42.2,30.01,West,281,7.3,13.4,95,0.00,,,0.44,WX3IN1Plus v1.30,2013-02-11 15:56:00,
2013-02-11 11:01:00,44.2,42.6,30.00,WSW,240,7.8,13.3,95,0.00,,,0.44,WX3IN1Plus v1.30,2013-02-11 16:01:00,
2013-02-11 11:06:00,44.4,42.8,30.00,WSW,250,4.5,13.4,95,0.00,,,0.44,WX3IN1Plus v1.30,2013-02-11 16:06:00,
2013-02-11 11:11:00,44.6,43.1,29.99,SW,234,3.7,10.7,95,0.00,,,0.44,WX3IN1Plus v1.30,2013-02-11 16:11:00,
2013-02-11 11:16:00,44.6,41.5,29.98,WSW,250,0.3,9.3,90,0.00,,,0.44,WX3IN1Plus v1.30,2013-02-11 16:16:00,
2013-02-11 11:21:00,44.7,41.5,29.97,WSW,241,4.8,9.8,90,0.00,,,0.44,WX3IN1Plus v1.30,2013-02-11 16:21:00,
2013-02-11 11:26:00,44.9,41.7,29.97,WSW,244,4.7,9.3,90,0.00,,,0.44,WX3IN1Plus v1.30,2013-02-11 16:26:00,
2013-02-11 11:31:00,45.0,43.1,29.96,West,261,4.7,11.2,94,0.00,,,0.44,WX3IN1Plus v1.30,2013-02-11 16:31:00,
2013-02-11 11:36:00,44.9,43.1,29.96,SW,234,2.0,8.8,94,0.00,,,0.44,WX3IN1Plus v1.30,2013-02-11 16:36:00,
2013-02-11 11:41:00,45.3,43.3,29.95,WSW,251,8.3,10.1,94,0.00,,,0.44,WX3IN1Plus v1.30,2013-02-11 16:41:00,
2013-02-11 11:46:00,45.5,43.7,29.95,WSW,247,4.4,9.2,94,0.00,,,0.44,WX3IN1Plus v1.30,2013-02-11 16:46:00,
2013-02-11 11:51:00,45.7,43.8,29.94,WSW,243,5.5,7.2,94,0.00,,,0.44,WX3IN1Plus v1.30,2013-02-11 16:51:00,
2013-02-11 11:56:00,45.7,43.8,29.94,WSW,257,4.4,9.7,94,0.00,,,0.44,WX3IN1Plus v1.30,2013-02-11 16:56:00,
2013-02-11 12:01:00,45.9,44.0,29.93,WSW,237,3.8,6.9,94,0.00,,,0.44,WX3IN1Plus v1.30,2013-02-11 17:01:00,
2013-02-11 12:06:00,46.0,44.0,29.93,South,191,6.8,7.8,94,0.00,,,0.44,WX3IN1Plus v1.30,2013-02-11 17:06:00,
2013-02-11 12:11:00,46.0,44.0,29.93,WSW,247,5.7,9.0,94,0.00,,,0.44,WX3IN1Plus v1.30,2013-02-11 17:11:00,
2013-02-11 12:16:00,46.3,44.4,29.92,West,267,2.7,6.7,94,0.00,,,0.44,WX3IN1Plus v1.30,2013-02-11 17:16:00,
2013-02-11 12:21:00,46.5,44.6,29.92,WSW,247,3.9,7.7,94,0.00,,,0.44,WX3IN1Plus v1.30,2013-02-11 17:21:00,
2013-02-11 12:26:00,46.8,44.9,29.91,WSW,251,4.5,7.7,94,0.00,,,0.44,WX3IN1Plus v1.30,2013-02-11 17:26:00,
2013-02-11 12:31:00,46.9,43.3,29.91,WSW,241,4.5,7.9,89,0.00,,,0.44,WX3IN1Plus v1.30,2013-02-11 17:31:00,
2013-02-11 12:36:00,47.2,43.7,29.90,WSW,250,1.6,9.6,89,0.00,,,0.44,WX3IN1Plus v1.30,2013-02-11 17:36:00,
2013-02-11 12:41:00,47.3,45.5,29.90,WSW,248,3.7,6.1,94,0.00,,,0.44,WX3IN1Plus v1.30,2013-02-11 17:41:00,
2013-02-11 12:46:00,47.7,45.5,29.89,West,264,4.7,11.2,93,0.00,,,0.44,WX3IN1Plus v1.30,2013-02-11 17:46:00,
2013-02-11 12:51:00,47.9,45.6,29.89,West,275,4.1,7.8,93,0.00,,,0.44,WX3IN1Plus v1.30,2013-02-11 17:51:00,
2013-02-11 12:56:00,48.2,46.0,29.89,SW,233,7.6,9.1,93,0.00,,,0.44,WX3IN1Plus v1.30,2013-02-11 17:56:00,
2013-02-11 13:01:00,48.4,46.2,29.89,SW,217,6.2,12.6,93,0.00,,,0.44,WX3IN1Plus v1.30,2013-02-11 18:01:00,
2013-02-11 13:06:00,48.6,46.5,29.88,NW,313,3.9,10.1,93,0.00,,,0.44,WX3IN1Plus v1.30,2013-02-11 18:06:00,
2013-02-11 13:11:00,48.9,46.5,29.88,WSW,241,4.7,11.2,92,0.00,,,0.44,WX3IN1Plus v1.30,2013-02-11 18:11:00,
2013-02-11 13:16:00,49.1,46.7,29.88,SW,222,4.1,10.1,92,0.00,,,0.44,WX3IN1Plus v1.30,2013-02-11 18:16:00,
2013-02-11 13:21:00,49.1,46.5,29.88,WSW,248,8.3,13.4,91,0.00,,,0.44,WX3IN1Plus v1.30,2013-02-11 18:21:00,
2013-02-11 13:26:00,49.2,46.5,29.88,WSW,237,7.7,12.6,91,0.00,,,0.44,WX3IN1Plus v1.30,2013-02-11 18:26:00,
2013-02-11 13:31:00,49.2,46.5,29.88,SW,229,7.7,12.8,91,0.00,,,0.44,WX3IN1Plus v1.30,2013-02-11 18:31:00,
2013-02-11 13:36:00,49.1,46.5,29.88,West,278,4.9,13.3,91,0.00,,,0.44,WX3IN1Plus v1.30,2013-02-11 18:36:00,
2013-02-11 13:41:00,49.3,46.7,29.88,West,261,7.5,15.5,91,0.00,,,0.44,WX3IN1Plus v1.30,2013-02-11 18:41:00,
2013-02-11 13:46:00,49.2,46.5,29.87,WSW,248,4.8,10.8,91,0.00,,,0.44,WX3IN1Plus v1.30,2013-02-11 18:46:00,
2013-02-11 13:51:00,49.1,46.5,29.87,SW,225,6.3,14.5,91,0.00,,,0.44,WX3IN1Plus v1.30,2013-02-11 18:51:00,
2013-02-11 13:56:00,49.3,46.7,29.87,WSW,247,9.9,15.4,91,0.00,,,0.44,WX3IN1Plus v1.30,2013-02-11 18:56:00,
2013-02-11 14:01:00,49.5,46.7,29.86,West,260,5.9,13.9,91,0.00,,,0.44,WX3IN1Plus v1.30,2013-02-11 19:01:00,
2013-02-11 14:06:00,49.7,47.1,29.85,West,275,7.0,9.8,91,0.00,,,0.44,WX3IN1Plus v1.30,2013-02-11 19:06:00,
2013-02-11 14:11:00,49.8,47.1,29.85,SW,216,3.7,14.7,91,0.00,,,0.44,WX3IN1Plus v1.30,2013-02-11 19:11:00,
2013-02-11 14:16:00,49.7,47.1,29.84,WSW,250,8.3,14.4,91,0.00,,,0.44,WX3IN1Plus v1.30,2013-02-11 19:16:00,
2013-02-11 14:21:00,49.8,47.1,29.85,WSW,253,7.0,12.5,91,0.00,,,0.44,WX3IN1Plus v1.30,2013-02-11 19:21:00,
2013-02-11 14:26:00,50.0,47.3,29.84,North,350,2.2,11.6,91,0.00,,,0.44,WX3IN1Plus v1.30,2013-02-11 19:26:00,
2013-02-11 14:31:00,50.1,47.3,29.84,WNW,286,6.8,13.4,91,0.00,,,0.44,WX3IN1Plus v1.30,2013-02-11 19:31:00,
2013-02-11 14:36:00,50.2,47.6,29.84,West,262,2.6,8.7,91,0.00,,,0.44,WX3IN1Plus v1.30,2013-02-11 19:36:00,
2013-02-11 14:41:00,50.2,47.6,29.83,SSW,203,3.6,11.5,91,0.00,,,0.44,WX3IN1Plus v1.30,2013-02-11 19:41:00,
2013-02-11 14:46:00,50.5,47.3,29.82,West,268,9.0,10.6,90,0.00,,,0.44,WX3IN1Plus v1.30,2013-02-11 19:46:00,
2013-02-11 14:51:00,50.6,47.3,29.81,West,265,4.1,12.6,90,0.00,,,0.44,WX3IN1Plus v1.30,2013-02-11 19:51:00,
2013-02-11 14:56:00,50.6,47.3,29.81,West,281,6.4,11.3,90,0.00,,,0.44,WX3IN1Plus v1.30,2013-02-11 19:56:00,
2013-02-11 15:01:00,50.8,47.6,29.81,WSW,243,8.0,12.9,90,0.00,,,0.44,WX3IN1Plus v1.30,2013-02-11 20:01:00,
2013-02-11 15:06:00,51.0,47.8,29.81,West,265,3.7,14.0,90,0.00,,,0.44,WX3IN1Plus v1.30,2013-02-11 20:06:00,
2013-02-11 15:11:00,50.8,47.6,29.81,WSW,240,8.4,11.2,90,0.00,,,0.44,WX3IN1Plus v1.30,2013-02-11 20:11:00,
2013-02-11 15:16:00,51.1,47.8,29.81,WSW,255,7.4,9.0,90,0.00,,,0.44,WX3IN1Plus v1.30,2013-02-11 20:16:00,
2013-02-11 15:21:00,51.1,47.8,29.81,West,268,6.8,11.4,90,0.00,,,0.44,WX3IN1Plus v1.30,2013-02-11 20:21:00,
2013-02-11 15:26:00,51.2,47.6,29.81,WSW,244,3.7,11.1,89,0.00,,,0.44,WX3IN1Plus v1.30,2013-02-11 20:26:00,
2013-02-11 15:31:00,51.3,47.8,29.80,WSW,244,5.9,9.4,89,0.00,,,0.44,WX3IN1Plus v1.30,2013-02-11 20:31:00,
2013-02-11 15:36:00,51.4,47.8,29.80,SW,236,5.0,11.4,89,0.00,,,0.44,WX3IN1Plus v1.30,2013-02-11 20:36:00,
2013-02-11 15:41:00,51.6,48.2,29.79,SW,215,5.2,12.1,89,0.00,,,0.44,WX3IN1Plus v1.30,2013-02-11 20:41:00,
2013-02-11 15:46:00,51.6,48.2,29.79,WSW,250,4.3,9.5,89,0.00,,,0.44,WX3IN1Plus v1.30,2013-02-11 20:46:00,
2013-02-11 15:51:00,51.8,48.3,29.79,West,267,5.5,8.3,89,0.00,,,0.44,WX3IN1Plus v1.30,2013-02-11 20:51:00,
2013-02-11 15:56:00,51.9,48.3,29.79,West,261,5.5,12.1,89,0.00,,,0.44,WX3IN1Plus v1.30,2013-02-11 20:56:00,
2013-02-11 16:01:00,51.8,48.3,29.78,SW,229,7.4,14.2,89,0.00,,,0.44,WX3IN1Plus v1.30,2013-02-11 21:01:00,
2013-02-11 16:06:00,52.0,48.3,29.78,WSW,257,4.6,11.1,88,0.00,,,0.44,WX3IN1Plus v1.30,2013-02-11 21:06:00,
2013-02-11 16:11:00,51.8,48.2,29.78,WSW,258,6.6,11.7,88,0.00,,,0.44,WX3IN1Plus v1.30,2013-02-11 21:11:00,
2013-02-11 16:16:00,51.9,48.2,29.78,WNW,284,7.1,11.0,88,0.00,,,0.44,WX3IN1Plus v1.30,2013-02-11 21:16:00,
2013-02-11 16:21:00,52.1,48.3,29.77,WSW,257,8.7,14.6,88,0.00,,,0.44,WX3IN1Plus v1.30,2013-02-11 21:21:00,
2013-02-11 16:26:00,51.8,48.2,29.77,WSW,244,7.3,13.7,88,0.00,,,0.44,WX3IN1Plus v1.30,2013-02-11 21:26:00,
2013-02-11 16:31:00,52.0,48.3,29.77,West,270,4.5,11.7,88,0.00,,,0.44,WX3IN1Plus v1.30,2013-02-11 21:31:00,
2013-02-11 16:36:00,51.9,48.2,29.76,WSW,243,5.0,9.2,88,0.00,,,0.44,WX3IN1Plus v1.30,2013-02-11 21:36:00,
2013-02-11 16:41:00,52.0,48.3,29.76,West,261,7.6,10.0,88,0.00,,,0.44,WX3IN1Plus v1.30,2013-02-11 21:41:00,
2013-02-11 16:46:00,52.1,48.3,29.76,WSW,254,4.5,9.6,88,0.00,,,0.44,WX3IN1Plus v1.30,2013-02-11 21:46:00,
2013-02-11 16:51:00,52.0,48.3,29.76,WSW,253,3.2,9.7,88,0.00,,,0.44,WX3IN1Plus v1.30,2013-02-11 21:51:00,
2013-02-11 16:56:00,52.0,48.3,29.76,WSW,241,5.6,9.8,88,0.00,,,0.44,WX3IN1Plus v1.30,2013-02-11 21:56:00,
2013-02-11 17:01:00,52.1,48.3,29.76,West,272,2.1,9.9,88,0.00,,,0.44,WX3IN1Plus v1.30,2013-02-11 22:01:00,
2013-02-11 17:06:00,52.1,48.3,29.76,West,262,6.7,10.6,88,0.00,,,0.44,WX3IN1Plus v1.30,2013-02-11 22:06:00,
2013-02-11 17:11:00,52.0,48.3,29.76,SW,217,1.6,8.9,88,0.00,,,0.44,WX3IN1Plus v1.30,2013-02-11 22:11:00,
2013-02-11 17:16:00,52.1,48.3,29.76,NW,324,3.6,10.1,88,0.00,,,0.44,WX3IN1Plus v1.30,2013-02-11 22:16:00,
2013-02-11 17:21:00,52.1,48.3,29.76,SW,236,3.9,10.1,88,0.00,,,0.44,WX3IN1Plus v1.30,2013-02-11 22:21:00,
2013-02-11 17:26:00,52.1,48.3,29.76,SW,234,6.0,9.1,88,0.00,,,0.44,WX3IN1Plus v1.30,2013-02-11 22:26:00,
2013-02-11 17:31:00,52.1,48.3,29.76,WSW,237,6.4,10.3,88,0.00,,,0.44,WX3IN1Plus v1.30,2013-02-11 22:31:00,
2013-02-11 17:36:00,52.2,48.3,29.76,SW,233,4.7,9.5,88,0.00,,,0.44,WX3IN1Plus v1.30,2013-02-11 22:36:00,
2013-02-11 17:41:00,52.1,48.2,29.75,SW,220,3.8,8.3,87,0.00,,,0.44,WX3IN1Plus v1.30,2013-02-11 22:41:00,
2013-02-11 17:46:00,52.1,48.2,29.75,SW,226,7.6,10.9,87,0.00,,,0.44,WX3IN1Plus v1.30,2013-02-11 22:46:00,
2013-02-11 17:51:00,52.2,48.2,29.75,SW,216,1.9,10.4,87,0.00,,,0.44,WX3IN1Plus v1.30,2013-02-11 22:51:00,
2013-02-11 17:56:00,52.3,48.2,29.75,West,270,6.2,13.6,87,0.00,,,0.44,WX3IN1Plus v1.30,2013-02-11 22:56:00,
2013-02-11 18:01:00,52.4,48.3,29.74,WSW,248,10.3,12.2,87,0.00,,,0.44,WX3IN1Plus v1.30,2013-02-11 23:01:00,
2013-02-11 18:06:00,52.6,48.5,29.74,West,270,5.5,11.5,87,0.00,,,0.44,WX3IN1Plus v1.30,2013-02-11 23:06:00,
2013-02-11 18:11:00,52.5,48.2,29.74,SW,219,4.7,14.7,86,0.00,,,0.44,WX3IN1Plus v1.30,2013-02-11 23:11:00,
2013-02-11 18:17:00,52.7,48.3,29.73,SW,236,4.7,8.5,86,0.00,,,0.44,WX3IN1Plus v1.30,2013-02-11 23:17:00,
2013-02-11 18:22:00,52.6,48.3,29.73,WSW,243,2.7,10.6,86,0.00,,,0.44,WX3IN1Plus v1.30,2013-02-11 23:22:00,
2013-02-11 18:27:00,52.7,48.3,29.73,West,281,6.3,11.1,86,0.00,,,0.44,WX3IN1Plus v1.30,2013-02-11 23:27:00,
2013-02-11 18:32:00,52.9,48.5,29.73,West,262,4.7,12.9,86,0.00,,,0.44,WX3IN1Plus v1.30,2013-02-11 23:32:00,
2013-02-11 18:37:00,53.1,48.9,29.73,West,270,7.9,11.0,86,0.00,,,0.44,WX3IN1Plus v1.30,2013-02-11 23:37:00,
2013-02-11 18:42:00,53.3,48.5,29.73,WSW,255,10.6,14.0,85,0.00,,,0.44,WX3IN1Plus v1.30,2013-02-11 23:42:00,
2013-02-11 18:47:00,53.3,48.5,29.73,WSW,251,2.0,11.3,85,0.00,,,0.44,WX3IN1Plus v1.30,2013-02-11 23:47:00,
2013-02-11 18:52:00,53.3,48.5,29.73,WSW,248,5.0,9.3,85,0.00,,,0.44,WX3IN1Plus v1.30,2013-02-11 23:52:00,
2013-02-11 18:57:00,53.2,48.5,29.73,North,2,3.2,10.9,85,0.00,,,0.44,WX3IN1Plus v1.30,2013-02-11 23:57:00,
2013-02-11 19:02:00,53.1,48.5,29.73,WSW,251,4.5,10.0,85,0.00,,,0.44,WX3IN1Plus v1.30,2013-02-12 00:02:00,
2013-02-11 19:07:00,53.4,48.5,29.74,West,265,6.9,9.7,85,0.00,,,0.44,WX3IN1Plus v1.30,2013-02-12 00:07:00,
2013-02-11 19:12:00,53.2,48.5,29.73,West,260,7.3,10.9,85,0.00,,,0.44,WX3IN1Plus v1.30,2013-02-12 00:12:00,
2013-02-11 19:17:00,53.5,48.9,29.73,WSW,241,1.5,10.0,85,0.00,,,0.44,WX3IN1Plus v1.30,2013-02-12 00:17:00,
2013-02-11 19:22:00,53.4,48.5,29.74,WSW,244,5.9,13.1,85,0.00,,,0.44,WX3IN1Plus v1.30,2013-02-12 00:22:00,
2013-02-11 19:27:00,53.6,48.9,29.74,WSW,257,6.5,12.7,85,0.00,,,0.44,WX3IN1Plus v1.30,2013-02-12 00:27:00,
2013-02-11 19:32:00,53.7,48.5,29.74,WSW,253,5.7,9.3,84,0.00,,,0.44,WX3IN1Plus v1.30,2013-02-12 00:32:00,
2013-02-11 19:37:00,53.7,48.5,29.74,WSW,243,5.5,9.7,84,0.00,,,0.44,WX3IN1Plus v1.30,2013-02-12 00:37:00,
2013-02-11 19:42:00,53.5,48.5,29.74,WSW,248,5.5,13.3,84,0.00,,,0.44,WX3IN1Plus v1.30,2013-02-12 00:42:00,
2013-02-11 19:47:00,53.5,48.5,29.74,WSW,243,3.7,10.8,84,0.00,,,0.44,WX3IN1Plus v1.30,2013-02-12 00:47:00,
2013-02-11 19:52:00,53.7,48.5,29.74,WSW,241,7.2,10.1,84,0.00,,,0.44,WX3IN1Plus v1.30,2013-02-12 00:52:00,
2013-02-11 19:57:00,53.8,48.9,29.74,West,272,4.4,11.3,84,0.00,,,0.44,WX3IN1Plus v1.30,2013-02-12 00:57:00,
2013-02-11 20:02:00,53.7,48.5,29.74,WSW,250,5.7,13.1,84,0.00,,,0.44,WX3IN1Plus v1.30,2013-02-12 01:02:00,
2013-02-11 20:07:00,54.0,49.1,29.74,SW,230,3.6,12.1,84,0.00,,,0.44,WX3IN1Plus v1.30,2013-02-12 01:07:00,
2013-02-11 20:12:00,54.0,49.1,29.74,WSW,255,6.0,11.7,84,0.00,,,0.44,WX3IN1Plus v1.30,2013-02-12 01:12:00,
2013-02-11 20:17:00,54.0,49.1,29.74,West,272,7.8,13.7,84,0.00,,,0.44,WX3IN1Plus v1.30,2013-02-12 01:17:00,
2013-02-11 20:22:00,54.0,49.1,29.74,West,272,4.8,11.0,84,0.00,,,0.44,WX3IN1Plus v1.30,2013-02-12 01:22:00,
2013-02-11 20:27:00,54.1,49.1,29.74,West,268,4.5,9.6,84,0.00,,,0.44,WX3IN1Plus v1.30,2013-02-12 01:27:00,
2013-02-11 20:32:00,53.8,48.9,29.74,West,268,3.6,9.3,84,0.00,,,0.44,WX3IN1Plus v1.30,2013-02-12 01:32:00,
2013-02-11 20:37:00,53.8,48.9,29.75,WNW,292,1.9,8.9,84,0.00,,,0.44,WX3IN1Plus v1.30,2013-02-12 01:37:00,
2013-02-11 20:42:00,53.7,47.8,29.75,SW,215,5.3,11.4,82,0.00,,,0.44,WX3IN1Plus v1.30,2013-02-12 01:42:00,
2013-02-11 20:47:00,53.8,48.2,29.76,East,90,5.3,8.7,82,0.00,,,0.44,WX3IN1Plus v1.30,2013-02-12 01:47:00,
2013-02-11 20:52:00,53.3,47.8,29.76,WNW,289,5.5,8.7,83,0.00,,,0.44,WX3IN1Plus v1.30,2013-02-12 01:52:00,
2013-02-11 20:57:00,53.5,48.2,29.76,SW,222,1.1,9.9,83,0.00,,,0.44,WX3IN1Plus v1.30,2013-02-12 01:57:00,
2013-02-11 21:02:00,53.4,47.8,29.76,West,260,3.4,10.2,83,0.00,,,0.44,WX3IN1Plus v1.30,2013-02-12 02:02:00,
2013-02-11 21:07:00,53.4,47.8,29.76,WSW,255,5.9,9.3,83,0.00,,,0.44,WX3IN1Plus v1.30,2013-02-12 02:07:00,
2013-02-11 21:12:00,53.2,47.8,29.76,West,267,7.4,7.5,83,0.00,,,0.44,WX3IN1Plus v1.30,2013-02-12 02:12:00,
2013-02-11 21:17:00,52.9,47.6,29.77,SSW,210,0.0,7.4,83,0.00,,,0.44,WX3IN1Plus v1.30,2013-02-12 02:17:00,
2013-02-11 21:22:00,52.7,47.8,29.77,West,267,0.0,9.4,84,0.00,,,0.44,WX3IN1Plus v1.30,2013-02-12 02:22:00,
2013-02-11 21:27:00,52.8,47.8,29.77,North,352,2.0,8.9,84,0.00,,,0.44,WX3IN1Plus v1.30,2013-02-12 02:27:00,
2013-02-11 21:32:00,52.3,47.3,29.77,WSW,250,0.0,7.2,84,0.00,,,0.44,WX3IN1Plus v1.30,2013-02-12 02:32:00,
2013-02-11 21:37:00,52.3,47.3,29.77,SSW,196,3.7,5.5,84,0.00,,,0.44,WX3IN1Plus v1.30,2013-02-12 02:37:00,
2013-02-11 21:42:00,52.1,47.8,29.78,WSW,254,2.9,9.3,86,0.00,,,0.44,WX3IN1Plus v1.30,2013-02-12 02:42:00,
2013-02-11 21:47:00,52.1,48.2,29.78,WNW,299,1.0,8.9,87,0.00,,,0.44,WX3IN1Plus v1.30,2013-02-12 02:47:00,
2013-02-11 21:52:00,52.1,48.2,29.78,West,262,3.8,9.9,87,0.00,,,0.44,WX3IN1Plus v1.30,2013-02-12 02:52:00,
2013-02-11 21:57:00,51.9,47.8,29.78,WSW,255,5.6,10.3,87,0.00,,,0.44,WX3IN1Plus v1.30,2013-02-12 02:57:00,
2013-02-11 22:02:00,51.9,47.8,29.79,West,268,1.7,7.2,87,0.00,,,0.44,WX3IN1Plus v1.30,2013-02-12 03:02:00,
2013-02-11 22:07:00,51.7,47.6,29.79,WSW,250,1.4,6.6,87,0.00,,,0.44,WX3IN1Plus v1.30,2013-02-12 03:07:00,
2013-02-11 22:12:00,51.7,47.6,29.79,West,279,0.0,4.4,87,0.00,,,0.44,WX3IN1Plus v1.30,2013-02-12 03:12:00,
2013-02-11 22:17:00,51.6,47.6,29.79,WSW,246,0.0,5.9,87,0.00,,,0.44,WX3IN1Plus v1.30,2013-02-12 03:17:00,
2013-02-11 22:22:00,51.2,47.1,29.80,West,271,1.0,5.0,87,0.00,,,0.44,WX3IN1Plus v1.30,2013-02-12 03:22:00,
2013-02-11 22:27:00,51.1,47.1,29.80,WSW,239,3.4,4.5,87,0.00,,,0.44,WX3IN1Plus v1.30,2013-02-12 03:27:00,
2013-02-11 22:32:00,50.9,47.1,29.80,West,260,1.0,6.8,87,0.00,,,0.44,WX3IN1Plus v1.30,2013-02-12 03:32:00,
2013-02-11 22:37:00,50.8,46.7,29.81,NNE,18,0.9,7.0,87,0.00,,,0.44,WX3IN1Plus v1.30,2013-02-12 03:37:00,
2013-02-11 22:42:00,50.7,46.5,29.82,WNW,286,0.0,3.9,87,0.00,,,0.44,WX3IN1Plus v1.30,2013-02-12 03:42:00,
2013-02-11 22:47:00,50.5,46.7,29.82,WSW,258,2.2,7.5,88,0.00,,,0.44,WX3IN1Plus v1.30,2013-02-12 03:47:00,
2013-02-11 22:52:00,50.2,46.5,29.82,NW,322,1.1,5.7,88,0.00,,,0.44,WX3IN1Plus v1.30,2013-02-12 03:52:00,
2013-02-11 22:57:00,50.4,46.7,29.82,SW,227,0.0,3.6,88,0.00,,,0.00,WX3IN1Plus v1.30,2013-02-12 03:57:00,
2013-02-11 23:02:00,50.2,46.5,29.82,West,275,0.3,3.2,88,0.00,,,0.00,WX3IN1Plus v1.30,2013-02-12 04:02:00,
2013-02-11 23:07:00,49.8,46.0,29.82,West,262,0.0,1.8,88,0.00,,,0.00,WX3IN1Plus v1.30,2013-02-12 04:07:00,
2013-02-11 23:12:00,49.8,46.0,29.83,WNW,295,2.0,3.2,88,0.00,,,0.00,WX3IN1Plus v1.30,2013-02-12 04:12:00,
2013-02-11 23:17:00,49.6,45.6,29.83,NNW,336,0.0,3.9,88,0.00,,,0.00,WX3IN1Plus v1.30,2013-02-12 04:17:00,
2013-02-11 23:22:00,49.6,45.6,29.84,North,8,1.4,1.5,88,0.00,,,0.00,WX3IN1Plus v1.30,2013-02-12 04:22:00,
2013-02-11 23:27:00,49.1,45.1,29.84,ESE,106,0.0,4.2,87,0.00,,,0.00,WX3IN1Plus v1.30,2013-02-12 04:27:00,
2013-02-11 23:32:00,48.8,44.4,29.84,NNE,12,0.0,5.3,85,0.00,,,0.00,WX3IN1Plus v1.30,2013-02-12 04:32:00,
2013-02-11 23:37:00,48.7,43.8,29.84,NE,39,0.0,2.4,84,0.00,,,0.00,WX3IN1Plus v1.30,2013-02-12 04:37:00,
2013-02-11 23:42:00,48.5,42.8,29.85,North,8,0.0,3.7,82,0.00,,,0.00,WX3IN1Plus v1.30,2013-02-12 04:42:00,
2013-02-11 23:47:00,48.3,42.0,29.85,North,0,8.4,13.8,80,0.00,,,0.00,WX3IN1Plus v1.30,2013-02-12 04:47:00,
2013-02-11 23:52:00,48.7,40.4,29.85,East,84,3.1,9.0,74,0.00,,,0.00,WX3IN1Plus v1.30,2013-02-12 04:52:00,
2013-02-11 23:57:00,48.7,40.2,29.85,NNW,348,0.0,4.8,73,0.00,,,0.00,WX3IN1Plus v1.30,2013-02-12 04:57:00,